• In Deutschland
  • Länderverzeichnis
  • Für 7 Tage
  • Wassertemperatur
  • Satellitenkarten
  • Wetterkarte
  • Widgets
  • user-avatar
    Anmelden

    Stündliche Wetter Smolan

    Heute, 22 Januar, Montag

    Zeit Temperatur Niederschläge Wind Luftdruck Luftfeuchtigkeit
    00:00 0°C° 0,3 mm 1 m/S 643 mmHg 95%
    01:00 0°C° 0,3 mm 1 m/S 643 mmHg 95%
    02:00 -2°C° 0 mm 3 m/S 643 mmHg 94%
    03:00 -2°C° 0,4 mm 3 m/S 643 mmHg 91%
    04:00 -4°C° 0,4 mm 4 m/S 643 mmHg 89%
    05:00 -4°C° 0,4 mm 4 m/S 643 mmHg 87%
    06:00 -5°C° 0,2 mm 4 m/S 643 mmHg 84%
    07:00 -5°C° 0,2 mm 4 m/S 643 mmHg 82%
    08:00 -7°C° 0,2 mm 4 m/S 644 mmHg 79%
    09:00 -5°C° 0 mm 4 m/S 644 mmHg 75%
    10:00 -5°C° 0 mm 5 m/S 645 mmHg 72%
    11:00 -4°C° 0 mm 5 m/S 646 mmHg 68%
    12:00 -4°C° 0 mm 5 m/S 646 mmHg 67%
    13:00 -4°C° 0 mm 5 m/S 647 mmHg 66%
    14:00 -4°C° 0 mm 5 m/S 647 mmHg 68%
    15:00 -4°C° 0 mm 4 m/S 648 mmHg 70%
    16:00 -4°C° 0 mm 4 m/S 648 mmHg 72%
    17:00 -5°C° 0 mm 3 m/S 649 mmHg 74%
    18:00 -6°C° 0 mm 3 m/S 649 mmHg 76%
    19:00 -7°C° 0 mm 3 m/S 649 mmHg 79%
    20:00 -8°C° 0 mm 3 m/S 649 mmHg 81%
    21:00 -8°C° 0 mm 3 m/S 650 mmHg 81%
    22:00 -7°C° 0 mm 2 m/S 650 mmHg 81%
    23:00 -8°C° 0 mm 2 m/S 650 mmHg 81%

    Morgen, 23 Januar, Dienstag

    Zeit Temperatur Niederschläge Wind Luftdruck Luftfeuchtigkeit
    00:00 -8°C° 0 mm 2 m/S 650 mmHg 80%
    01:00 -8°C° 0 mm 2 m/S 651 mmHg 79%
    02:00 -8°C° 0 mm 2 m/S 651 mmHg 79%
    03:00 -8°C° 0 mm 2 m/S 651 mmHg 78%
    04:00 -8°C° 0 mm 2 m/S 652 mmHg 77%
    05:00 -8°C° 0 mm 2 m/S 652 mmHg 77%
    06:00 -7°C° 0 mm 1 m/S 652 mmHg 76%
    07:00 -7°C° 0 mm 1 m/S 652 mmHg 76%
    08:00 -7°C° 0 mm 1 m/S 653 mmHg 75%
    09:00 -4°C° 0 mm 1 m/S 654 mmHg 70%
    10:00 -3°C° 0 mm 1 m/S 655 mmHg 65%
    11:00 -1°C° 0 mm 1 m/S 656 mmHg 60%
    12:00 0°C° 0 mm 1 m/S 656 mmHg 59%
    13:00 0°C° 0 mm 1 m/S 656 mmHg 59%
    14:00 -2°C° 0 mm 2 m/S 656 mmHg 58%
    15:00 0°C° 0 mm 1 m/S 656 mmHg 63%
    16:00 -1°C° 0 mm 1 m/S 656 mmHg 68%
    17:00 -2°C° 0 mm 1 m/S 656 mmHg 73%
    18:00 -3°C° 0 mm 1 m/S 657 mmHg 76%
    19:00 -4°C° 0 mm 1 m/S 657 mmHg 78%
    20:00 -6°C° 0 mm 1 m/S 657 mmHg 81%
    21:00 -6°C° 0 mm 1 m/S 658 mmHg 81%
    22:00 -6°C° 0 mm 1 m/S 658 mmHg 81%
    23:00 -7°C° 0 mm 1 m/S 658 mmHg 81%

    übermorgen, 24 Januar, Mittwoch

    Zeit Temperatur Niederschläge Wind Luftdruck Luftfeuchtigkeit
    00:00 -8°C° 0 mm 2 m/S 659 mmHg 81%
    01:00 -8°C° 0 mm 2 m/S 659 mmHg 80%
    02:00 -8°C° 0 mm 2 m/S 659 mmHg 80%
    03:00 -8°C° 0 mm 2 m/S 659 mmHg 80%
    04:00 -9°C° 0 mm 2 m/S 659 mmHg 80%
    05:00 -9°C° 0 mm 2 m/S 660 mmHg 80%
    06:00 -9°C° 0 mm 2 m/S 660 mmHg 81%
    07:00 -9°C° 0 mm 2 m/S 660 mmHg 82%
    08:00 -9°C° 0 mm 2 m/S 661 mmHg 82%
    09:00 -7°C° 0 mm 2 m/S 662 mmHg 75%
    10:00 -6°C° 0 mm 2 m/S 663 mmHg 67%
    11:00 -6°C° 0 mm 3 m/S 663 mmHg 60%
    12:00 -5°C° 0 mm 3 m/S 663 mmHg 58%
    13:00 -5°C° 0 mm 3 m/S 663 mmHg 55%
    14:00 -4°C° 0 mm 3 m/S 663 mmHg 53%
    15:00 -4°C° 0 mm 2 m/S 663 mmHg 57%
    16:00 -5°C° 0 mm 2 m/S 663 mmHg 61%
    17:00 -6°C° 0 mm 2 m/S 663 mmHg 65%
    18:00 -7°C° 0 mm 2 m/S 663 mmHg 66%
    19:00 -8°C° 0 mm 2 m/S 663 mmHg 68%
    20:00 -9°C° 0 mm 2 m/S 663 mmHg 69%
    21:00 -9°C° 0 mm 2 m/S 663 mmHg 68%
    22:00 -9°C° 0 mm 2 m/S 663 mmHg 67%
    23:00 -9°C° 0 mm 2 m/S 663 mmHg 66%

    25 Januar, Donnerstag

    Zeit Temperatur Niederschläge Wind Luftdruck Luftfeuchtigkeit
    00:00 -9°C° 0 mm 2 m/S 663 mmHg 65%
    01:00 -9°C° 0 mm 2 m/S 663 mmHg 64%
    02:00 -9°C° 0 mm 2 m/S 662 mmHg 63%
    03:00 -8°C° 0 mm 1 m/S 662 mmHg 61%
    04:00 -8°C° 0 mm 1 m/S 662 mmHg 59%
    05:00 -8°C° 0 mm 1 m/S 662 mmHg 56%
    06:00 -8°C° 0 mm 1 m/S 662 mmHg 54%
    07:00 -8°C° 0 mm 1 m/S 662 mmHg 52%
    08:00 -8°C° 0 mm 1 m/S 662 mmHg 50%
    09:00 -6°C° 0 mm 1 m/S 662 mmHg 45%
    10:00 -3°C° 0 mm 1 m/S 663 mmHg 40%
    11:00 -1°C° 0 mm 1 m/S 663 mmHg 35%
    12:00 -1°C° 0 mm 1 m/S 663 mmHg 36%
    13:00 0°C° 0 mm 1 m/S 663 mmHg 36%
    14:00 +1°C° 0 mm 1 m/S 663 mmHg 36%
    15:00 0°C° 0 mm 1 m/S 662 mmHg 42%
    16:00 -2°C° 0 mm 1 m/S 661 mmHg 48%
    17:00 -3°C° 0 mm 1 m/S 661 mmHg 54%
    18:00 -4°C° 0 mm 1 m/S 660 mmHg 56%
    19:00 -4°C° 0 mm 1 m/S 660 mmHg 59%
    20:00 -6°C° 0 mm 1 m/S 660 mmHg 61%
    21:00 -6°C° 0 mm 1 m/S 660 mmHg 59%
    22:00 -6°C° 0 mm 1 m/S 660 mmHg 58%
    23:00 -6°C° 0 mm 1 m/S 660 mmHg 56%

    26 Januar, Freitag

    Zeit Temperatur Niederschläge Wind Luftdruck Luftfeuchtigkeit
    00:00 -6°C° 0 mm 1 m/S 660 mmHg 55%
    01:00 -6°C° 0 mm 1 m/S 660 mmHg 54%
    02:00 -6°C° 0 mm 1 m/S 659 mmHg 52%
    03:00 -6°C° 0 mm 1 m/S 659 mmHg 52%
    04:00 -6°C° 0 mm 1 m/S 659 mmHg 51%
    05:00 -6°C° 0 mm 1 m/S 659 mmHg 50%
    06:00 -6°C° 0 mm 1 m/S 659 mmHg 50%
    07:00 -6°C° 0 mm 1 m/S 659 mmHg 49%
    08:00 -6°C° 0 mm 1 m/S 659 mmHg 49%
    09:00 -3°C° 0 mm 1 m/S 660 mmHg 46%
    10:00 -1°C° 0 mm 1 m/S 660 mmHg 42%
    11:00 +1°C° 0 mm 1 m/S 661 mmHg 39%
    12:00 +2°C° 0 mm 1 m/S 661 mmHg 39%
    13:00 +2°C° 0 mm 1 m/S 660 mmHg 40%
    14:00 +3°C° 0 mm 1 m/S 660 mmHg 41%
    15:00 +2°C° 0 mm 1 m/S 660 mmHg 48%
    16:00 0°C° 0 mm 1 m/S 659 mmHg 55%
    17:00 -1°C° 0 mm 1 m/S 659 mmHg 62%
    18:00 -2°C° 0 mm 1 m/S 659 mmHg 64%
    19:00 -2°C° 0 mm 1 m/S 659 mmHg 66%
    20:00 -3°C° 0 mm 1 m/S 659 mmHg 69%
    21:00 -3°C° 0 mm 1 m/S 659 mmHg 69%
    22:00 -3°C° 0 mm 1 m/S 659 mmHg 68%
    23:00 -4°C° 0 mm 1 m/S 659 mmHg 68%

    27 Januar, Samstag

    Zeit Temperatur Niederschläge Wind Luftdruck Luftfeuchtigkeit
    00:00 -4°C° 0 mm 1 m/S 659 mmHg 68%
    01:00 -4°C° 0 mm 1 m/S 659 mmHg 68%
    02:00 -4°C° 0 mm 1 m/S 659 mmHg 68%
    03:00 -4°C° 0 mm 1 m/S 659 mmHg 67%
    04:00 -4°C° 0 mm 1 m/S 659 mmHg 67%
    05:00 -3°C° 0 mm 1 m/S 659 mmHg 67%
    06:00 -3°C° 0 mm 1 m/S 659 mmHg 66%
    07:00 -3°C° 0 mm 1 m/S 659 mmHg 65%
    08:00 -3°C° 0 mm 1 m/S 659 mmHg 65%
    09:00 -1°C° 0 mm 1 m/S 660 mmHg 59%
    10:00 +1°C° 0 mm 1 m/S 661 mmHg 54%
    11:00 +3°C° 0 mm 1 m/S 662 mmHg 49%
    12:00 +4°C° 0 mm 1 m/S 662 mmHg 49%
    13:00 +4°C° 0 mm 1 m/S 662 mmHg 49%
    14:00 +5°C° 0 mm 1 m/S 661 mmHg 48%
    15:00 +4°C° 0 mm 1 m/S 661 mmHg 55%
    16:00 +2°C° 0 mm 1 m/S 661 mmHg 62%
    17:00 0°C° 0 mm 0 m/S 661 mmHg 69%
    18:00 0°C° 0 mm 1 m/S 661 mmHg 72%
    19:00 -1°C° 0 mm 1 m/S 661 mmHg 75%
    20:00 -1°C° 0 mm 1 m/S 661 mmHg 77%
    21:00 -1°C° 0 mm 1 m/S 661 mmHg 77%
    22:00 -2°C° 0 mm 1 m/S 661 mmHg 78%
    23:00 -2°C° 0 mm 1 m/S 661 mmHg 78%
    Mehr zeigen